| time (UTC) | temp C | wind direction | speed KPH | gust KPH | rain 1hr cm | rain 24hr cm | rain mn cm | humidity % | barometer mb |
| 20260507224529 | 10 | 326 | 11.3 | 17.7 | 0.00 | 0.00 | 0.00 | 75 | 1018.6 |
| 20260507223532 | 10 | 326 | 12.9 | 22.5 | 0.00 | 0.00 | 0.00 | 75 | 1018.4 |
| 20260507222526 | 10 | 339 | 11.3 | 19.3 | 0.00 | 0.00 | 0.00 | 76 | 1018.4 |
| 20260507221535 | 10 | 9 | 8.0 | 14.5 | 0.00 | 0.00 | 0.00 | 78 | 1018.0 |
| 20260507220533 | 10 | 15 | 11.3 | 22.5 | 0.00 | 0.00 | 0.00 | 79 | 1018.0 |
| 20260507215534 | 9 | 18 | 9.7 | 20.9 | 0.00 | 0.00 | 0.00 | 81 | 1017.8 |
| 20260507214523 | 8 | 23 | 11.3 | 25.7 | 0.00 | 0.00 | 0.00 | 85 | 1017.7 |
| 20260507213533 | 8 | 14 | 11.3 | 27.4 | 0.00 | 0.00 | 0.00 | 86 | 1017.7 |
| 20260507212522 | 8 | 24 | 12.9 | 20.9 | 0.00 | 0.00 | 0.00 | 86 | 1017.8 |
| 20260507211531 | 8 | 22 | 11.3 | 25.7 | 0.00 | 0.00 | 0.00 | 86 | 1017.8 |
| 20260507210527 | 8 | 24 | 11.3 | 24.1 | 0.00 | 0.00 | 0.00 | 86 | 1017.8 |
| 20260507205533 | 8 | 3 | 9.7 | 17.7 | 0.00 | 0.00 | 0.00 | 86 | 1017.6 |
| 20260507204519 | 8 | 4 | 11.3 | 20.9 | 0.00 | 0.00 | 0.00 | 85 | 1017.8 |
| 20260507203528 | 8 | 15 | 11.3 | 20.9 | 0.00 | 0.00 | 0.00 | 86 | 1017.8 |
| 20260507202516 | 8 | 10 | 9.7 | 17.7 | 0.00 | 0.00 | 0.00 | 85 | 1017.8 |
| 20260507201526 | 7 | 359 | 8.0 | 14.5 | 0.00 | 0.00 | 0.00 | 86 | 1017.6 |
| 20260507200536 | 7 | 349 | 11.3 | 22.5 | 0.00 | 0.00 | 0.00 | 85 | 1017.5 |
| 20260507195525 | 8 | 346 | 12.9 | 25.7 | 0.00 | 0.00 | 0.00 | 84 | 1017.4 |
| 20260507194535 | 8 | 335 | 14.5 | 20.9 | 0.00 | 0.00 | 0.00 | 83 | 1017.5 |
| 20260507193523 | 8 | 329 | 16.1 | 25.7 | 0.00 | 0.00 | 0.00 | 82 | 1017.5 |
| 20260507192540 | 8 | 311 | 16.1 | 25.7 | 0.00 | 0.00 | 0.00 | 80 | 1017.5 |
| 20260507191522 | 8 | 297 | 14.5 | 22.5 | 0.00 | 0.00 | 0.00 | 80 | 1017.3 |
| 20260507190531 | 8 | 289 | 14.5 | 25.7 | 0.00 | 0.00 | 0.00 | 77 | 1017.4 |
| 20260507185528 | 9 | 289 | 12.9 | 24.1 | 0.00 | 0.00 | 0.00 | 75 | 1017.3 |
| 20260507184530 | 9 | 276 | 11.3 | 19.3 | 0.00 | 0.00 | 0.00 | 75 | 1017.3 |
| 20260507183518 | 9 | 273 | 11.3 | 22.5 | 0.00 | 0.00 | 0.00 | 75 | 1017.2 |
| 20260507182528 | 9 | 290 | 12.9 | 22.5 | 0.00 | 0.00 | 0.00 | 74 | 1017.3 |
| 20260507181517 | 8 | 302 | 11.3 | 22.5 | 0.00 | 0.00 | 0.00 | 76 | 1017.4 |
| 20260507180526 | 8 | 326 | 6.4 | 11.3 | 0.00 | 0.00 | 0.00 | 80 | 1017.2 |
| 20260507175550 | 8 | 0 | 8.0 | 17.7 | 0.00 | 0.00 | 0.00 | 80 | 1017.2 |
| 20260507174524 | 8 | 349 | 6.4 | 9.7 | 0.00 | 0.00 | 0.00 | 78 | 1017.6 |
| 20260507173534 | 8 | 349 | 8.0 | 11.3 | 0.00 | 0.00 | 0.00 | 76 | 1017.5 |
| 20260507172530 | 8 | 332 | 9.7 | 17.7 | 0.00 | 0.00 | 0.00 | 75 | 1017.4 |
| 20260507171532 | 8 | 336 | 8.0 | 14.5 | 0.00 | 0.00 | 0.00 | 74 | 1017.6 |
| 20260507170527 | 8 | 344 | 8.0 | 11.3 | 0.00 | 0.00 | 0.00 | 73 | 1017.5 |
| 20260507165530 | 8 | 327 | 8.0 | 16.1 | 0.00 | 0.00 | 0.00 | 72 | 1017.6 |
| 20260507164519 | 8 | 306 | 8.0 | 16.1 | 0.00 | 0.00 | 0.00 | 71 | 1017.7 |
| 20260507163528 | 8 | 323 | 8.0 | 17.7 | 0.00 | 0.00 | 0.00 | 71 | 1017.7 |
| 20260507162518 | 8 | 304 | 12.9 | 20.9 | 0.00 | 0.00 | 0.00 | 71 | 1017.9 |
| 20260507161528 | 8 | 295 | 14.5 | 25.7 | 0.00 | 0.00 | 0.00 | 70 | 1017.6 |
| 20260507160516 | 8 | 305 | 11.3 | 22.5 | 0.00 | 0.00 | 0.00 | 68 | 1017.8 |
| 20260507155525 | 8 | 300 | 9.7 | 17.7 | 0.00 | 0.00 | 0.00 | 71 | 1017.7 |
| 20260507154535 | 7 | 8 | 8.0 | 14.5 | 0.00 | 0.00 | 0.00 | 72 | 1017.7 |
| 20260507153524 | 8 | 18 | 4.8 | 8.0 | 0.00 | 0.00 | 0.00 | 69 | 1017.9 |
| 20260507152534 | 8 | 305 | 8.0 | 14.5 | 0.00 | 0.00 | 0.00 | 68 | 1017.9 |
| 20260507151522 | 8 | 288 | 6.4 | 17.7 | 0.00 | 0.00 | 0.00 | 68 | 1018.1 |
| 20260507150533 | 8 | 280 | 9.7 | 20.9 | 0.00 | 0.00 | 0.00 | 69 | 1018.1 |
| 20260507145521 | 8 | 299 | 6.4 | 12.9 | 0.00 | 0.00 | 0.00 | 69 | 1018.2 |
| 20260507144530 | 8 | 327 | 8.0 | 16.1 | 0.00 | 0.00 | 0.00 | 70 | 1018.0 |
| 20260507143519 | 8 | 285 | 8.0 | 14.5 | 0.00 | 0.00 | 0.00 | 70 | 1017.9 |
| 20260507142528 | 8 | 285 | 3.2 | 6.4 | 0.00 | 0.00 | 0.00 | 71 | 1018.3 |
| 20260507141517 | 8 | 351 | 6.4 | 12.9 | 0.00 | 0.00 | 0.00 | 70 | 1018.2 |
| 20260507140527 | 8 | 20 | 3.2 | 6.4 | 0.00 | 0.00 | 0.00 | 70 | 1018.5 |
| 20260507135536 | 8 | 321 | 6.4 | 11.3 | 0.00 | 0.00 | 0.00 | 69 | 1018.7 |
| 20260507134526 | 8 | 333 | 9.7 | 19.3 | 0.00 | 0.00 | 0.00 | 70 | 1018.9 |
| 20260507133541 | 7 | 325 | 6.4 | 14.5 | 0.00 | 0.00 | 0.00 | 71 | 1018.9 |
| 20260507132524 | 7 | 360 | 6.4 | 8.0 | 0.00 | 0.00 | 0.00 | 72 | 1018.9 |
| 20260507131534 | 7 | 7 | 4.8 | 9.7 | 0.00 | 0.00 | 0.00 | 71 | 1019.0 |
| 20260507130522 | 7 | 11 | 4.8 | 14.5 | 0.00 | 0.00 | 0.00 | 70 | 1019.1 |
| 20260507125531 | 7 | 3 | 6.4 | 9.7 | 0.00 | 0.00 | 0.00 | 69 | 1019.2 |
| 20260507124527 | 7 | 4 | 4.8 | 9.7 | 0.00 | 0.00 | 0.00 | 68 | 1019.4 |
| 20260507123530 | 7 | 332 | 6.4 | 9.7 | 0.00 | 0.00 | 0.00 | 67 | 1019.4 |
| 20260507122519 | 7 | 277 | 4.8 | 11.3 | 0.00 | 0.00 | 0.00 | 67 | 1019.6 |
| 20260507121528 | 7 | 312 | 4.8 | 9.7 | 0.00 | 0.00 | 0.00 | 68 | 1019.6 |
| 20260507120518 | 7 | 321 | 6.4 | 12.9 | 0.00 | 0.00 | 0.00 | 69 | 1019.6 |
| 20260507115527 | 7 | 336 | 6.4 | 11.3 | 0.00 | 0.00 | 0.00 | 67 | 1019.8 |
| 20260507114537 | 7 | 300 | 8.0 | 12.9 | 0.00 | 0.00 | 0.00 | 65 | 1019.6 |
| 20260507113525 | 7 | 274 | 6.4 | 14.5 | 0.00 | 0.00 | 0.00 | 65 | 1019.6 |
| 20260507112534 | 7 | 294 | 9.7 | 17.7 | 0.00 | 0.00 | 0.00 | 66 | 1019.8 |
| 20260507111524 | 7 | 305 | 8.0 | 14.5 | 0.00 | 0.00 | 0.00 | 67 | 1019.6 |
| 20260507110532 | 7 | 315 | 8.0 | 14.5 | 0.00 | 0.00 | 0.00 | 67 | 1019.7 |
| 20260507105522 | 7 | 308 | 6.4 | 12.9 | 0.00 | 0.00 | 0.00 | 67 | 1019.7 |
| 20260507104531 | 7 | 308 | 8.0 | 12.9 | 0.00 | 0.00 | 0.00 | 65 | 1019.5 |
| 20260507103528 | 7 | 313 | 8.0 | 16.1 | 0.00 | 0.00 | 0.00 | 67 | 1019.4 |
| 20260507102529 | 7 | 332 | 9.7 | 17.7 | 0.00 | 0.00 | 0.00 | 67 | 1019.4 |
| 20260507101518 | 8 | 336 | 8.0 | 12.9 | 0.00 | 0.00 | 0.00 | 66 | 1019.2 |
| 20260507100528 | 8 | 318 | 6.4 | 12.9 | 0.00 | 0.00 | 0.00 | 65 | 1019.2 |
| 20260507095531 | 8 | 308 | 6.4 | 14.5 | 0.00 | 0.00 | 0.00 | 64 | 1019.1 |
| 20260507094533 | 8 | 291 | 6.4 | 16.1 | 0.00 | 0.00 | 0.00 | 64 | 1019.1 |
| 20260507093535 | 8 | 298 | 8.0 | 17.7 | 0.00 | 0.00 | 0.00 | 64 | 1018.8 |
| 20260507092532 | 8 | 281 | 6.4 | 14.5 | 0.00 | 0.00 | 0.00 | 65 | 1018.9 |
| 20260507091533 | 8 | 270 | 4.8 | 11.3 | 0.00 | 0.00 | 0.00 | 65 | 1018.7 |
| 20260507090529 | 7 | 284 | 6.4 | 14.5 | 0.00 | 0.00 | 0.00 | 66 | 1018.6 |
| 20260507085531 | 8 | 284 | 6.4 | 14.5 | 0.00 | 0.00 | 0.00 | 66 | 1018.5 |
| 20260507084520 | 7 | 287 | 4.8 | 12.9 | 0.00 | 0.00 | 0.00 | 67 | 1018.6 |
| 20260507083529 | 8 | 269 | 1.6 | 4.8 | 0.00 | 0.00 | 0.00 | 66 | 1018.6 |
| 20260507082518 | 8 | 280 | 4.8 | 11.3 | 0.00 | 0.00 | 0.00 | 64 | 1018.5 |
| 20260507081527 | 8 | 281 | 8.0 | 17.7 | 0.00 | 0.00 | 0.00 | 62 | 1018.4 |
| 20260507080531 | 8 | 277 | 4.8 | 12.9 | 0.00 | 0.00 | 0.00 | 63 | 1018.2 |
| 20260507075526 | 8 | 282 | 6.4 | 11.3 | 0.00 | 0.00 | 0.00 | 63 | 1017.8 |
| 20260507074535 | 8 | 285 | 6.4 | 16.1 | 0.00 | 0.00 | 0.00 | 62 | 1017.7 |
| 20260507073524 | 8 | 279 | 6.4 | 14.5 | 0.00 | 0.00 | 0.00 | 62 | 1017.4 |
| 20260507072535 | 8 | 254 | 8.0 | 19.3 | 0.00 | 0.00 | 0.00 | 62 | 1017.4 |
| 20260507071523 | 8 | 262 | 6.4 | 16.1 | 0.00 | 0.00 | 0.00 | 62 | 1017.3 |
| 20260507070532 | 9 | 272 | 8.0 | 16.1 | 0.00 | 0.00 | 0.00 | 61 | 1017.2 |
| 20260507065521 | 10 | 272 | 8.0 | 19.3 | 0.00 | 0.00 | 0.00 | 59 | 1017.1 |
| 20260507064533 | 10 | 266 | 11.3 | 24.1 | 0.00 | 0.00 | 0.00 | 57 | 1016.9 |
| 20260507063519 | 10 | 274 | 14.5 | 25.7 | 0.00 | 0.00 | 0.00 | 56 | 1016.9 |
| 20260507062529 | 10 | 267 | 8.0 | 16.1 | 0.00 | 0.00 | 0.00 | 54 | 1016.7 |
| 20260507061525 | 10 | 276 | 8.0 | 14.5 | 0.00 | 0.00 | 0.00 | 53 | 1016.7 |
| 20260507060534 | 11 | 271 | 9.7 | 24.1 | 0.00 | 0.00 | 0.00 | 53 | 1016.5 |
| 20260507055517 | 11 | 262 | 9.7 | 22.5 | 0.00 | 0.00 | 0.00 | 53 | 1016.2 |
| 20260507054526 | 11 | 263 | 11.3 | 24.1 | 0.00 | 0.00 | 0.00 | 52 | 1016.4 |
| 20260507053535 | 10 | 231 | 9.7 | 17.7 | 0.00 | 0.00 | 0.00 | 54 | 1016.2 |
| 20260507052524 | 10 | 258 | 11.3 | 24.1 | 0.00 | 0.00 | 0.00 | 53 | 1015.9 |
| 20260507051535 | 10 | 251 | 11.3 | 24.1 | 0.00 | 0.00 | 0.00 | 51 | 1015.8 |
| 20260507050523 | 10 | 267 | 11.3 | 19.3 | 0.00 | 0.00 | 0.00 | 52 | 1015.8 |
| 20260507045533 | 11 | 259 | 12.9 | 22.5 | 0.00 | 0.00 | 0.00 | 48 | 1015.9 |
| 20260507044521 | 10 | 252 | 6.4 | 14.5 | 0.00 | 0.00 | 0.00 | 51 | 1015.8 |
| 20260507043531 | 11 | 223 | 12.9 | 19.3 | 0.00 | 0.00 | 0.00 | 48 | 1015.6 |
| 20260507042519 | 11 | 255 | 9.7 | 19.3 | 0.00 | 0.00 | 0.00 | 48 | 1015.3 |
| 20260507041529 | 11 | 243 | 11.3 | 27.4 | 0.00 | 0.00 | 0.00 | 48 | 1015.1 |
| 20260507040519 | 10 | 243 | 11.3 | 22.5 | 0.00 | 0.00 | 0.00 | 50 | 1015.1 |
| 20260507035534 | 11 | 236 | 11.3 | 24.1 | 0.00 | 0.00 | 0.00 | 49 | 1015.1 |
| 20260507034543 | 10 | 249 | 11.3 | 25.7 | 0.00 | 0.00 | 0.00 | 49 | 1015.0 |
| 20260507033526 | 10 | 237 | 11.3 | 20.9 | 0.00 | 0.00 | 0.00 | 50 | 1015.1 |
| 20260507032534 | 10 | 239 | 9.7 | 24.1 | 0.00 | 0.00 | 0.00 | 52 | 1015.0 |
| 20260507031523 | 11 | 236 | 9.7 | 16.1 | 0.00 | 0.00 | 0.00 | 51 | 1014.9 |
| 20260507030540 | 11 | 225 | 11.3 | 19.3 | 0.00 | 0.00 | 0.00 | 51 | 1014.8 |
| 20260507025522 | 11 | 262 | 8.0 | 20.9 | 0.00 | 0.00 | 0.00 | 51 | 1015.0 |
| 20260507024532 | 10 | 238 | 9.7 | 19.3 | 0.00 | 0.00 | 0.00 | 51 | 1014.8 |
| 20260507023520 | 10 | 211 | 12.9 | 24.1 | 0.00 | 0.00 | 0.00 | 50 | 1014.8 |
| 20260507022531 | 10 | 202 | 12.9 | 22.5 | 0.00 | 0.00 | 0.00 | 51 | 1014.9 |
| 20260507021520 | 10 | 225 | 9.7 | 16.1 | 0.00 | 0.00 | 0.00 | 51 | 1014.9 |
| 20260507020531 | 10 | 226 | 9.7 | 19.3 | 0.00 | 0.00 | 0.00 | 52 | 1015.0 |
| 20260507015518 | 10 | 265 | 12.9 | 24.1 | 0.00 | 0.00 | 0.00 | 51 | 1015.1 |
| 20260507014528 | 10 | 240 | 9.7 | 16.1 | 0.00 | 0.00 | 0.00 | 52 | 1015.2 |
| 20260507013537 | 10 | 227 | 9.7 | 20.9 | 0.00 | 0.00 | 0.00 | 51 | 1015.4 |
| 20260507012525 | 10 | 229 | 6.4 | 12.9 | 0.00 | 0.00 | 0.00 | 52 | 1015.3 |
| 20260507011535 | 10 | 248 | 6.4 | 17.7 | 0.00 | 0.00 | 0.00 | 53 | 1015.4 |
| 20260507010523 | 10 | 228 | 9.7 | 16.1 | 0.00 | 0.00 | 0.00 | 51 | 1015.5 |
| 20260507005533 | 10 | 271 | 9.7 | 19.3 | 0.00 | 0.00 | 0.00 | 52 | 1015.3 |
| 20260507004522 | 10 | 259 | 8.0 | 19.3 | 0.00 | 0.00 | 0.00 | 52 | 1015.1 |
| 20260507003531 | 10 | 235 | 12.9 | 30.6 | 0.00 | 0.00 | 0.00 | 52 | 1015.0 |
| 20260507002522 | 10 | 251 | 9.7 | 19.3 | 0.00 | 0.00 | 0.00 | 52 | 1015.0 |
| 20260507001529 | 9 | 261 | 8.0 | 25.7 | 0.00 | 0.00 | 0.00 | 53 | 1014.9 |
| 20260507000518 | 9 | 241 | 11.3 | 22.5 | 0.00 | 0.00 | 0.00 | 53 | 1015.2 |
| 20260506235528 | 10 | 206 | 8.0 | 16.1 | 0.00 | 0.00 | 0.00 | 54 | 1015.1 |
| 20260506234517 | 9 | 236 | 12.9 | 25.7 | 0.00 | 0.00 | 0.00 | 54 | 1014.8 |
| 20260506233527 | 9 | 264 | 11.3 | 20.9 | 0.00 | 0.00 | 0.00 | 55 | 1014.5 |
| 20260506232537 | 8 | 264 | 9.7 | 20.9 | 0.00 | 0.00 | 0.00 | 56 | 1014.8 |
| 20260506231524 | 8 | 266 | 9.7 | 20.9 | 0.00 | 0.00 | 0.00 | 57 | 1014.9 |
| 20260506230533 | 8 | 266 | 9.7 | 22.5 | 0.00 | 0.00 | 0.00 | 58 | 1014.8 |
| 20260506225529 | 8 | 246 | 9.7 | 17.7 | 0.00 | 0.00 | 0.00 | 58 | 1014.7 |